| time (UTC) | temp F | wind direction | speed MPH | gust MPH | rain 1hr in | rain 24hr in | rain mn in | humidity % | barometer mb |
| 20260906024939 | 88 | 149 | 2.0 | 8.0 | 0.00 | 0.00 | 0.00 | 60 | 1012.9 |
| 20260906024438 | 88 | 238 | 2.0 | 3.0 | 0.00 | 0.00 | 0.00 | 59 | 1012.9 |
| 20260906023933 | 88 | 146 | 1.0 | 6.0 | 0.00 | 0.00 | 0.00 | 58 | 1012.6 |
| 20260906023430 | 88 | 193 | 1.0 | 4.0 | 0.00 | 0.00 | 0.00 | 58 | 1012.5 |
| 20260906022924 | 89 | 128 | 2.0 | 5.0 | 0.00 | 0.00 | 0.00 | 57 | 1012.4 |
| 20260906022419 | 89 | 148 | 5.0 | 6.0 | 0.00 | 0.00 | 0.00 | 56 | 1012.3 |
| 20260906021915 | 89 | 181 | 1.0 | 4.0 | 0.00 | 0.00 | 0.00 | 56 | 1012.2 |
| 20260906021414 | 89 | 247 | 0.0 | 3.0 | 0.00 | 0.00 | 0.00 | 56 | 1012.1 |
| 20260906020909 | 89 | 151 | 3.0 | 3.0 | 0.00 | 0.00 | 0.00 | 55 | 1012.1 |
| 20260906020403 | 90 | 132 | 1.0 | 4.0 | 0.00 | 0.00 | 0.00 | 55 | 1012.0 |
| 20260906015857 | 90 | 322 | 0.0 | 2.0 | 0.00 | 0.00 | 0.00 | 55 | 1011.9 |
| 20260906015356 | 90 | 62 | 0.0 | 4.0 | 0.00 | 0.00 | 0.00 | 55 | 1011.9 |
| 20260906014851 | 90 | 197 | 1.0 | 5.0 | 0.00 | 0.00 | 0.00 | 54 | 1011.9 |
| 20260906014351 | 90 | 115 | 4.0 | 5.0 | 0.00 | 0.00 | 0.00 | 54 | 1011.7 |
| 20260906013847 | 90 | 118 | 1.0 | 3.0 | 0.00 | 0.00 | 0.00 | 54 | 1011.7 |
| 20260906013342 | 91 | 188 | 0.0 | 4.0 | 0.00 | 0.00 | 0.00 | 53 | 1011.7 |
| 20260906012838 | 91 | 137 | 0.0 | 3.0 | 0.00 | 0.00 | 0.00 | 53 | 1011.7 |
| 20260906012333 | 91 | 101 | 2.0 | 5.0 | 0.00 | 0.00 | 0.00 | 53 | 1011.8 |
| 20260906011832 | 91 | 113 | 2.0 | 5.0 | 0.00 | 0.00 | 0.00 | 52 | 1011.7 |
| 20260906011327 | 91 | 130 | 4.0 | 5.0 | 0.00 | 0.00 | 0.00 | 52 | 1011.5 |
| 20260906010823 | 91 | 127 | 3.0 | 8.0 | 0.00 | 0.00 | 0.00 | 52 | 1011.6 |
| 20260906010319 | 92 | 128 | 1.0 | 8.0 | 0.00 | 0.00 | 0.00 | 52 | 1011.4 |
| 20260906005814 | 92 | 141 | 2.0 | 4.0 | 0.00 | 0.00 | 0.00 | 53 | 1011.2 |
| 20260906005313 | 92 | 122 | 4.0 | 6.0 | 0.00 | 0.00 | 0.00 | 52 | 1011.5 |
| 20260906004812 | 92 | 138 | 5.0 | 16.0 | 0.00 | 0.00 | 0.00 | 51 | 1011.4 |
| 20260906004312 | 93 | 123 | 2.0 | 10.0 | 0.00 | 0.00 | 0.00 | 50 | 1011.3 |
| 20260906003808 | 94 | 126 | 5.0 | 8.0 | 0.00 | 0.00 | 0.00 | 47 | 1011.2 |
| 20260906003303 | 94 | 147 | 3.0 | 8.0 | 0.00 | 0.00 | 0.00 | 46 | 1011.2 |
| 20260906002759 | 95 | 78 | 2.0 | 8.0 | 0.00 | 0.00 | 0.00 | 46 | 1011.1 |
| 20260906002258 | 95 | 123 | 5.0 | 10.0 | 0.00 | 0.00 | 0.00 | 44 | 1011.1 |
| 20260906001754 | 96 | 71 | 3.0 | 3.0 | 0.00 | 0.00 | 0.00 | 40 | 1011.0 |
| 20260906001248 | 97 | 100 | 3.0 | 3.0 | 0.00 | 0.00 | 0.00 | 39 | 1011.0 |
| 20260906000743 | 99 | 305 | 1.0 | 4.0 | 0.00 | 0.00 | 0.00 | 38 | 1011.0 |
| 20260906000238 | 99 | 240 | 2.0 | 3.0 | 0.00 | 0.00 | 0.00 | 38 | 1010.8 |
| 20260905235733 | 98 | 184 | 0.0 | 5.0 | 0.00 | 0.00 | 0.00 | 38 | 1010.9 |
| 20260905235233 | 98 | 166 | 3.0 | 3.0 | 0.00 | 0.00 | 0.00 | 38 | 1010.9 |
| 20260905234728 | 99 | 252 | 1.0 | 4.0 | 0.00 | 0.00 | 0.00 | 38 | 1011.2 |
| 20260905234223 | 97 | 296 | 0.0 | 1.0 | 0.00 | 0.00 | 0.00 | 39 | 1011.0 |
| 20260905233719 | 97 | 126 | 2.0 | 3.0 | 0.00 | 0.00 | 0.00 | 40 | 1011.1 |
| 20260905233218 | 97 | 84 | 2.0 | 3.0 | 0.00 | 0.00 | 0.00 | 40 | 1011.2 |
| 20260905232713 | 97 | 288 | 0.0 | 4.0 | 0.00 | 0.00 | 0.00 | 39 | 1010.9 |
| 20260905232209 | 97 | 98 | 2.0 | 4.0 | 0.00 | 0.00 | 0.00 | 40 | 1011.0 |
| 20260905231705 | 97 | 116 | 2.0 | 3.0 | 0.00 | 0.00 | 0.00 | 41 | 1011.1 |
| 20260905231200 | 97 | 101 | 3.0 | 5.0 | 0.00 | 0.00 | 0.00 | 40 | 1010.9 |
| 20260905230655 | 96 | 40 | 0.0 | 3.0 | 0.00 | 0.00 | 0.00 | 41 | 1011.0 |
| 20260905230153 | 97 | 85 | 3.0 | 6.0 | 0.00 | 0.00 | 0.00 | 41 | 1011.1 |
| 20260905225653 | 97 | 213 | 0.0 | 2.0 | 0.00 | 0.00 | 0.00 | 41 | 1011.0 |
| 20260905225148 | 96 | 20 | 2.0 | 5.0 | 0.00 | 0.00 | 0.00 | 42 | 1011.1 |
| 20260905224648 | 97 | 100 | 3.0 | 3.0 | 0.00 | 0.00 | 0.00 | 42 | 1011.0 |
| 20260905224147 | 95 | 95 | 2.0 | 5.0 | 0.00 | 0.00 | 0.00 | 42 | 1011.1 |
| 20260905223644 | 96 | 169 | 2.0 | 4.0 | 0.00 | 0.00 | 0.00 | 43 | 1011.0 |
| 20260905223141 | 96 | 283 | 2.0 | 3.0 | 0.00 | 0.00 | 0.00 | 42 | 1011.1 |
| 20260905222636 | 96 | 275 | 0.0 | 3.0 | 0.00 | 0.00 | 0.00 | 43 | 1011.3 |
| 20260905222131 | 95 | 50 | 0.0 | 2.0 | 0.00 | 0.00 | 0.00 | 42 | 1011.1 |
| 20260905221627 | 95 | 284 | 1.0 | 2.0 | 0.00 | 0.00 | 0.00 | 42 | 1011.1 |
| 20260905221124 | 95 | 25 | 4.0 | 6.0 | 0.00 | 0.00 | 0.00 | 42 | 1011.2 |
| 20260905220619 | 96 | 82 | 2.0 | 4.0 | 0.00 | 0.00 | 0.00 | 41 | 1011.3 |
| 20260905220115 | 96 | 295 | 3.0 | 4.0 | 0.00 | 0.00 | 0.00 | 40 | 1011.2 |
| 20260905215614 | 98 | 165 | 5.0 | 5.0 | 0.00 | 0.00 | 0.00 | 40 | 1011.0 |
| 20260905215110 | 98 | 223 | 2.0 | 3.0 | 0.00 | 0.00 | 0.00 | 40 | 1011.3 |
| 20260905214606 | 98 | 73 | 2.0 | 4.0 | 0.00 | 0.00 | 0.00 | 39 | 1011.0 |
| 20260905214106 | 98 | 234 | 2.0 | 3.0 | 0.00 | 0.00 | 0.00 | 40 | 1011.1 |
| 20260905213601 | 101 | 259 | 2.0 | 5.0 | 0.00 | 0.00 | 0.00 | 36 | 1011.2 |
| 20260905213056 | 100 | 212 | 3.0 | 4.0 | 0.00 | 0.00 | 0.00 | 37 | 1011.2 |
| 20260905212551 | 98 | 283 | 2.0 | 8.0 | 0.00 | 0.00 | 0.00 | 38 | 1011.3 |
| 20260905212050 | 100 | 285 | 4.0 | 5.0 | 0.00 | 0.00 | 0.00 | 36 | 1011.4 |
| 20260905211546 | 100 | 278 | 0.0 | 5.0 | 0.00 | 0.00 | 0.00 | 37 | 1011.5 |
| 20260905211041 | 98 | 304 | 2.0 | 3.0 | 0.00 | 0.00 | 0.00 | 37 | 1011.4 |
| 20260905210537 | 101 | 135 | 0.0 | 4.0 | 0.00 | 0.00 | 0.00 | 36 | 1011.5 |
| 20260905210032 | 100 | 300 | 1.0 | 6.0 | 0.00 | 0.00 | 0.00 | 36 | 1011.6 |
| 20260905205531 | 99 | 341 | 2.0 | 5.0 | 0.00 | 0.00 | 0.00 | 37 | 1011.6 |
| 20260905205031 | 100 | 2 | 1.0 | 5.0 | 0.00 | 0.00 | 0.00 | 37 | 1011.8 |
| 20260905204525 | 98 | 113 | 3.0 | 5.0 | 0.00 | 0.00 | 0.00 | 37 | 1011.6 |
| 20260905204020 | 100 | 286 | 1.0 | 6.0 | 0.00 | 0.00 | 0.00 | 37 | 1011.7 |
| 20260905203515 | 99 | 321 | 3.0 | 8.0 | 0.00 | 0.00 | 0.00 | 38 | 1012.0 |
| 20260905203010 | 100 | 254 | 3.0 | 3.0 | 0.00 | 0.00 | 0.00 | 37 | 1012.3 |
| 20260905202506 | 99 | 294 | 6.0 | 6.0 | 0.00 | 0.00 | 0.00 | 38 | 1012.2 |
| 20260905202001 | 98 | 232 | 1.0 | 6.0 | 0.00 | 0.00 | 0.00 | 39 | 1012.3 |
| 20260905201456 | 97 | 258 | 2.0 | 5.0 | 0.00 | 0.00 | 0.00 | 40 | 1012.4 |
| 20260905200955 | 96 | 89 | 3.0 | 5.0 | 0.00 | 0.00 | 0.00 | 40 | 1012.4 |
| 20260905200452 | 99 | 242 | 0.0 | 5.0 | 0.00 | 0.00 | 0.00 | 38 | 1012.7 |
| 20260905195950 | 99 | 333 | 3.0 | 5.0 | 0.00 | 0.00 | 0.00 | 39 | 1012.6 |
| 20260905195445 | 97 | 264 | 1.0 | 3.0 | 0.00 | 0.00 | 0.00 | 39 | 1013.0 |
| 20260905194941 | 98 | 62 | 0.0 | 5.0 | 0.00 | 0.00 | 0.00 | 38 | 1012.9 |
| 20260905194440 | 98 | 257 | 5.0 | 6.0 | 0.00 | 0.00 | 0.00 | 38 | 1013.1 |
| 20260905193935 | 99 | 309 | 3.0 | 6.0 | 0.00 | 0.00 | 0.00 | 38 | 1013.2 |
| 20260905193435 | 98 | 86 | 1.0 | 3.0 | 0.00 | 0.00 | 0.00 | 42 | 1013.2 |
| 20260905192930 | 98 | 158 | 2.0 | 4.0 | 0.00 | 0.00 | 0.00 | 41 | 1013.1 |
| 20260905192425 | 98 | 197 | 1.0 | 4.0 | 0.00 | 0.00 | 0.00 | 41 | 1013.3 |
| 20260905191921 | 97 | 263 | 3.0 | 7.0 | 0.00 | 0.00 | 0.00 | 40 | 1013.3 |
| 20260905191419 | 96 | 269 | 5.0 | 9.0 | 0.00 | 0.00 | 0.00 | 44 | 1013.5 |
| 20260905190914 | 97 | 259 | 2.0 | 5.0 | 0.00 | 0.00 | 0.00 | 46 | 1013.5 |
| 20260905190412 | 96 | 212 | 0.0 | 3.0 | 0.00 | 0.00 | 0.00 | 47 | 1013.5 |
| 20260905185911 | 97 | 266 | 3.0 | 7.0 | 0.00 | 0.00 | 0.00 | 47 | 1013.8 |
| 20260905185406 | 95 | 262 | 4.0 | 5.0 | 0.00 | 0.00 | 0.00 | 49 | 1013.7 |
| 20260905184904 | 97 | 273 | 2.0 | 6.0 | 0.00 | 0.00 | 0.00 | 47 | 1014.0 |
| 20260905184359 | 95 | 265 | 1.0 | 4.0 | 0.00 | 0.00 | 0.00 | 50 | 1013.9 |
| 20260905183857 | 95 | 238 | 2.0 | 6.0 | 0.00 | 0.00 | 0.00 | 51 | 1014.2 |
| 20260905183353 | 95 | 100 | 3.0 | 4.0 | 0.00 | 0.00 | 0.00 | 48 | 1014.1 |
| 20260905182848 | 96 | 338 | 3.0 | 4.0 | 0.00 | 0.00 | 0.00 | 52 | 1014.2 |
| 20260905182347 | 96 | 131 | 1.0 | 3.0 | 0.00 | 0.00 | 0.00 | 47 | 1014.4 |
| 20260905181843 | 96 | 254 | 2.0 | 7.0 | 0.00 | 0.00 | 0.00 | 47 | 1014.2 |
| 20260905181343 | 95 | 258 | 0.0 | 6.0 | 0.00 | 0.00 | 0.00 | 50 | 1014.5 |
| 20260905180842 | 94 | 271 | 2.0 | 6.0 | 0.00 | 0.00 | 0.00 | 50 | 1014.6 |
| 20260905180337 | 93 | 273 | 3.0 | 5.0 | 0.00 | 0.00 | 0.00 | 55 | 1014.6 |
| 20260905175832 | 95 | 215 | 3.0 | 5.0 | 0.00 | 0.00 | 0.00 | 51 | 1015.0 |
| 20260905175326 | 95 | 248 | 4.0 | 7.0 | 0.00 | 0.00 | 0.00 | 51 | 1014.7 |
| 20260905174821 | 92 | 209 | 0.0 | 3.0 | 0.00 | 0.00 | 0.00 | 56 | 1014.7 |
| 20260905174317 | 92 | 155 | 2.0 | 3.0 | 0.00 | 0.00 | 0.00 | 55 | 1014.6 |
| 20260905173812 | 93 | 188 | 0.0 | 6.0 | 0.00 | 0.00 | 0.00 | 56 | 1015.0 |
| 20260905173309 | 94 | 203 | 0.0 | 7.0 | 0.00 | 0.00 | 0.00 | 54 | 1015.1 |
| 20260905172809 | 95 | 230 | 2.0 | 4.0 | 0.00 | 0.00 | 0.00 | 52 | 1015.3 |
| 20260905172307 | 95 | 233 | 1.0 | 3.0 | 0.00 | 0.00 | 0.00 | 55 | 1015.3 |
| 20260905171803 | 95 | 204 | 4.0 | 5.0 | 0.00 | 0.00 | 0.00 | 53 | 1015.4 |
| 20260905171300 | 95 | 56 | 0.0 | 5.0 | 0.00 | 0.00 | 0.00 | 57 | 1015.5 |
| 20260905170755 | 93 | 271 | 3.0 | 3.0 | 0.00 | 0.00 | 0.00 | 57 | 1015.2 |
| 20260905170251 | 93 | 327 | 0.0 | 3.0 | 0.00 | 0.00 | 0.00 | 57 | 1015.5 |
| 20260905165750 | 94 | 327 | 3.0 | 4.0 | 0.00 | 0.00 | 0.00 | 55 | 1015.2 |
| 20260905165246 | 95 | 333 | 2.0 | 3.0 | 0.00 | 0.00 | 0.00 | 57 | 1015.5 |
| 20260905164746 | 93 | 236 | 0.0 | 4.0 | 0.00 | 0.00 | 0.00 | 59 | 1015.5 |
| 20260905164240 | 93 | 282 | 1.0 | 5.0 | 0.00 | 0.00 | 0.00 | 59 | 1015.4 |
| 20260905163736 | 92 | 173 | 3.0 | 4.0 | 0.00 | 0.00 | 0.00 | 60 | 1015.4 |
| 20260905163233 | 91 | 250 | 2.0 | 7.0 | 0.00 | 0.00 | 0.00 | 61 | 1015.5 |
| 20260905162728 | 91 | 123 | 1.0 | 9.0 | 0.00 | 0.00 | 0.00 | 62 | 1015.2 |
| 20260905162228 | 91 | 243 | 1.0 | 4.0 | 0.00 | 0.00 | 0.00 | 62 | 1015.4 |
| 20260905161723 | 90 | 301 | 2.0 | 4.0 | 0.00 | 0.00 | 0.00 | 64 | 1015.5 |
| 20260905161221 | 92 | 242 | 3.0 | 5.0 | 0.00 | 0.00 | 0.00 | 60 | 1015.5 |
| 20260905160720 | 91 | 188 | 4.0 | 7.0 | 0.00 | 0.00 | 0.00 | 62 | 1015.6 |
| 20260905160220 | 91 | 221 | 2.0 | 6.0 | 0.00 | 0.00 | 0.00 | 63 | 1015.6 |
| 20260905155714 | 91 | 249 | 4.0 | 6.0 | 0.00 | 0.00 | 0.00 | 61 | 1015.6 |
| 20260905155213 | 91 | 276 | 2.0 | 7.0 | 0.00 | 0.00 | 0.00 | 63 | 1015.5 |
| 20260905154707 | 91 | 323 | 0.0 | 4.0 | 0.00 | 0.00 | 0.00 | 64 | 1015.6 |
| 20260905154204 | 93 | 261 | 2.0 | 3.0 | 0.00 | 0.00 | 0.00 | 62 | 1015.2 |
| 20260905153659 | 92 | 216 | 3.0 | 3.0 | 0.00 | 0.00 | 0.00 | 63 | 1015.6 |
| 20260905153154 | 91 | 254 | 0.0 | 5.0 | 0.00 | 0.00 | 0.00 | 66 | 1015.3 |
| 20260905152649 | 90 | 333 | 0.0 | 3.0 | 0.00 | 0.00 | 0.00 | 68 | 1015.4 |
| 20260905152144 | 89 | 256 | 2.0 | 3.0 | 0.00 | 0.00 | 0.00 | 69 | 1015.5 |
| 20260905151639 | 89 | 253 | 2.0 | 4.0 | 0.00 | 0.00 | 0.00 | 69 | 1015.4 |
| 20260905151134 | 89 | 243 | 2.0 | 3.0 | 0.00 | 0.00 | 0.00 | 70 | 1015.7 |
| 20260905150629 | 88 | 335 | 1.0 | 2.0 | 0.00 | 0.00 | 0.00 | 72 | 1015.7 |
| 20260905150128 | 86 | 299 | 0.0 | 5.0 | 0.00 | 0.00 | 0.00 | 75 | 1015.5 |
| 20260905145626 | 87 | 215 | 1.0 | 3.0 | 0.00 | 0.00 | 0.00 | 75 | 1015.4 |
| 20260905145125 | 86 | 256 | 1.0 | 3.0 | 0.00 | 0.00 | 0.00 | 75 | 1015.4 |
| 20260905144620 | 86 | 96 | 1.0 | 5.0 | 0.00 | 0.00 | 0.00 | 75 | 1015.5 |
| 20260905144119 | 87 | 281 | 1.0 | 3.0 | 0.00 | 0.00 | 0.00 | 76 | 1015.4 |
| 20260905143614 | 86 | 124 | 2.0 | 4.0 | 0.00 | 0.00 | 0.00 | 77 | 1015.5 |
| 20260905143109 | 87 | 160 | 0.0 | 3.0 | 0.00 | 0.00 | 0.00 | 76 | 1015.4 |
| 20260905142607 | 87 | 268 | 1.0 | 3.0 | 0.00 | 0.00 | 0.00 | 75 | 1015.3 |
| 20260905142102 | 87 | 147 | 0.0 | 3.0 | 0.00 | 0.00 | 0.00 | 77 | 1015.6 |
| 20260905141601 | 88 | 179 | 4.0 | 4.0 | 0.00 | 0.00 | 0.00 | 75 | 1015.3 |
| 20260905141058 | 86 | 294 | 0.0 | 2.0 | 0.00 | 0.00 | 0.00 | 78 | 1015.2 |
| 20260905140553 | 86 | 123 | 1.0 | 3.0 | 0.00 | 0.00 | 0.00 | 77 | 1015.3 |
| 20260905140052 | 85 | 284 | 0.0 | 1.0 | 0.00 | 0.00 | 0.00 | 79 | 1015.4 |
| 20260905135548 | 84 | 129 | 0.0 | 1.0 | 0.00 | 0.00 | 0.00 | 81 | 1015.5 |
| 20260905135048 | 84 | 271 | 1.0 | 2.0 | 0.00 | 0.00 | 0.00 | 81 | 1015.2 |
| 20260905134543 | 83 | 81 | 1.0 | 1.0 | 0.00 | 0.00 | 0.00 | 83 | 1015.1 |
| 20260905134041 | 83 | 106 | 0.0 | 3.0 | 0.00 | 0.00 | 0.00 | 82 | 1015.2 |
| 20260905133537 | 83 | 326 | 0.0 | 2.0 | 0.00 | 0.00 | 0.00 | 82 | 1015.3 |
| 20260905133036 | 82 | 354 | 2.0 | 2.0 | 0.00 | 0.00 | 0.00 | 84 | 1015.1 |
| 20260905132531 | 81 | 107 | 1.0 | 2.0 | 0.00 | 0.00 | 0.00 | 85 | 1015.0 |
| 20260905132026 | 82 | 335 | 2.0 | 2.0 | 0.00 | 0.00 | 0.00 | 83 | 1014.9 |
| 20260905131521 | 81 | 32 | 0.0 | 2.0 | 0.00 | 0.00 | 0.00 | 84 | 1014.9 |
| 20260905131016 | 81 | 354 | 2.0 | 2.0 | 0.00 | 0.00 | 0.00 | 84 | 1014.9 |
| 20260905130515 | 81 | 330 | 1.0 | 2.0 | 0.00 | 0.00 | 0.00 | 84 | 1014.7 |
| 20260905130011 | 80 | 10 | 0.0 | 1.0 | 0.00 | 0.00 | 0.00 | 88 | 1014.7 |
| 20260905125505 | 79 | 242 | 0.0 | 0.0 | 0.00 | 0.00 | 0.00 | 93 | 1014.3 |
| 20260905125001 | 78 | 283 | 0.0 | 1.0 | 0.00 | 0.00 | 0.00 | 96 | 1014.5 |
| 20260905124457 | 78 | 322 | 0.0 | 1.0 | 0.00 | 0.00 | 0.00 | 96 | 1014.5 |
| 20260905123953 | 77 | 209 | 0.0 | 0.0 | 0.00 | 0.00 | 0.00 | 96 | 1014.4 |
| 20260905123449 | 76 | 291 | 0.0 | 1.0 | 0.00 | 0.00 | 0.00 | 96 | 1014.1 |
| 20260905122948 | 75 | 269 | 0.0 | 0.0 | 0.00 | 0.00 | 0.00 | 96 | 1014.6 |
| 20260905122443 | 74 | 286 | 0.0 | 1.0 | 0.00 | 0.00 | 0.00 | 96 | 1014.1 |
| 20260905121938 | 74 | 279 | 0.0 | 1.0 | 0.00 | 0.00 | 0.00 | 96 | 1014.3 |
| 20260905121434 | 75 | 273 | 2.0 | 2.0 | 0.00 | 0.00 | 0.00 | 96 | 1014.1 |
| 20260905120933 | 74 | 242 | 0.0 | 2.0 | 0.00 | 0.00 | 0.00 | 96 | 1014.2 |
| 20260905120428 | 74 | 226 | 0.0 | 2.0 | 0.00 | 0.00 | 0.00 | 96 | 1014.1 |
| 20260905115923 | 74 | 269 | 0.0 | 0.0 | 0.00 | 0.00 | 0.00 | 96 | 1014.1 |
| 20260905115422 | 74 | 256 | 0.0 | 2.0 | 0.00 | 0.00 | 0.00 | 96 | 1014.3 |
| 20260905114917 | 74 | 319 | 0.0 | 1.0 | 0.00 | 0.00 | 0.00 | 96 | 1014.2 |
| 20260905114416 | 74 | 269 | 0.0 | 0.0 | 0.00 | 0.00 | 0.00 | 96 | 1014.1 |
| 20260905113916 | 74 | 269 | 0.0 | 0.0 | 0.00 | 0.00 | 0.00 | 96 | 1014.2 |
| 20260905113411 | 75 | 230 | 0.0 | 0.0 | 0.00 | 0.00 | 0.00 | 96 | 1014.1 |
| 20260905112906 | 75 | 247 | 1.0 | 1.0 | 0.00 | 0.00 | 0.00 | 96 | 1014.3 |
| 20260905112401 | 75 | 309 | 0.0 | 0.0 | 0.00 | 0.00 | 0.00 | 95 | 1014.3 |
| 20260905111856 | 75 | 75 | 0.0 | 0.0 | 0.00 | 0.00 | 0.00 | 95 | 1014.0 |
| 20260905111350 | 75 | 269 | 1.0 | 2.0 | 0.00 | 0.00 | 0.00 | 95 | 1014.1 |
| 20260905110850 | 75 | 284 | 0.0 | 0.0 | 0.00 | 0.00 | 0.00 | 95 | 1013.9 |
| 20260905110344 | 76 | 322 | 0.0 | 0.0 | 0.00 | 0.00 | 0.00 | 95 | 1013.9 |
| 20260905105839 | 76 | 269 | 0.0 | 2.0 | 0.00 | 0.00 | 0.00 | 95 | 1013.9 |
| 20260905105339 | 75 | 324 | 0.0 | 1.0 | 0.00 | 0.00 | 0.00 | 95 | 1013.9 |
| 20260905104833 | 75 | 283 | 0.0 | 1.0 | 0.00 | 0.00 | 0.00 | 95 | 1014.0 |
| 20260905104330 | 76 | 25 | 0.0 | 0.0 | 0.00 | 0.00 | 0.00 | 95 | 1014.1 |
| 20260905103829 | 76 | 246 | 0.0 | 1.0 | 0.00 | 0.00 | 0.00 | 95 | 1013.9 |
| 20260905103325 | 76 | 309 | 0.0 | 1.0 | 0.00 | 0.00 | 0.00 | 94 | 1014.0 |
| 20260905102820 | 76 | 304 | 0.0 | 0.0 | 0.00 | 0.00 | 0.00 | 94 | 1013.8 |
| 20260905102317 | 76 | 304 | 0.0 | 0.0 | 0.00 | 0.00 | 0.00 | 94 | 1013.8 |
| 20260905101817 | 76 | 304 | 0.0 | 0.0 | 0.00 | 0.00 | 0.00 | 94 | 1013.8 |
| 20260905101315 | 76 | 304 | 0.0 | 0.0 | 0.00 | 0.00 | 0.00 | 94 | 1013.7 |
| 20260905100809 | 76 | 304 | 0.0 | 0.0 | 0.00 | 0.00 | 0.00 | 94 | 1013.8 |
| 20260905100306 | 76 | 309 | 0.0 | 0.0 | 0.00 | 0.00 | 0.00 | 93 | 1013.8 |
| 20260905095804 | 76 | 326 | 0.0 | 0.0 | 0.00 | 0.00 | 0.00 | 93 | 1013.7 |
| 20260905095259 | 76 | 326 | 0.0 | 0.0 | 0.00 | 0.00 | 0.00 | 93 | 1014.0 |
| 20260905094754 | 77 | 217 | 0.0 | 0.0 | 0.00 | 0.00 | 0.00 | 93 | 1013.8 |
| 20260905094249 | 77 | 260 | 1.0 | 1.0 | 0.00 | 0.00 | 0.00 | 93 | 1013.8 |
| 20260905093748 | 77 | 315 | 0.0 | 0.0 | 0.00 | 0.00 | 0.00 | 92 | 1013.9 |
| 20260905093244 | 77 | 333 | 0.0 | 0.0 | 0.00 | 0.00 | 0.00 | 92 | 1014.0 |
| 20260905092740 | 77 | 309 | 0.0 | 1.0 | 0.00 | 0.00 | 0.00 | 92 | 1013.9 |
| 20260905092235 | 77 | 284 | 0.0 | 1.0 | 0.00 | 0.00 | 0.00 | 92 | 1013.8 |
| 20260905091735 | 77 | 249 | 0.0 | 1.0 | 0.00 | 0.00 | 0.00 | 92 | 1014.0 |
| 20260905091230 | 77 | 242 | 0.0 | 1.0 | 0.00 | 0.00 | 0.00 | 91 | 1014.0 |
| 20260905090728 | 77 | 293 | 0.0 | 1.0 | 0.00 | 0.00 | 0.00 | 91 | 1014.1 |
| 20260905090224 | 78 | 255 | 0.0 | 1.0 | 0.00 | 0.00 | 0.00 | 91 | 1013.9 |
| 20260905085718 | 78 | 142 | 0.0 | 0.0 | 0.00 | 0.00 | 0.00 | 90 | 1014.0 |
| 20260905085213 | 78 | 242 | 0.0 | 1.0 | 0.00 | 0.00 | 0.00 | 90 | 1013.6 |
| 20260905084712 | 78 | 127 | 0.0 | 0.0 | 0.00 | 0.00 | 0.00 | 90 | 1013.9 |
| 20260905084207 | 78 | 154 | 0.0 | 1.0 | 0.00 | 0.00 | 0.00 | 90 | 1014.0 |
| 20260905083701 | 78 | 304 | 0.0 | 0.0 | 0.00 | 0.00 | 0.00 | 90 | 1013.8 |
| 20260905083158 | 78 | 304 | 0.0 | 0.0 | 0.00 | 0.00 | 0.00 | 90 | 1013.9 |
| 20260905082653 | 78 | 304 | 0.0 | 0.0 | 0.00 | 0.00 | 0.00 | 90 | 1014.1 |
| 20260905082148 | 78 | 293 | 0.0 | 1.0 | 0.00 | 0.00 | 0.00 | 90 | 1014.1 |
| 20260905081643 | 78 | 297 | 0.0 | 1.0 | 0.00 | 0.00 | 0.00 | 90 | 1014.2 |
| 20260905081138 | 78 | 269 | 0.0 | 1.0 | 0.00 | 0.00 | 0.00 | 89 | 1014.1 |
| 20260905080632 | 78 | 299 | 0.0 | 0.0 | 0.00 | 0.00 | 0.00 | 89 | 1014.4 |
| 20260905080127 | 78 | 89 | 0.0 | 0.0 | 0.00 | 0.00 | 0.00 | 89 | 1014.4 |
| 20260905075626 | 78 | 89 | 0.0 | 0.0 | 0.00 | 0.00 | 0.00 | 89 | 1014.2 |
| 20260905075126 | 78 | 229 | 0.0 | 0.0 | 0.00 | 0.00 | 0.00 | 89 | 1014.3 |
| 20260905074625 | 78 | 206 | 0.0 | 2.0 | 0.00 | 0.00 | 0.00 | 89 | 1014.3 |
| 20260905074120 | 78 | 225 | 0.0 | 1.0 | 0.00 | 0.00 | 0.00 | 89 | 1014.4 |
| 20260905073616 | 78 | 252 | 0.0 | 1.0 | 0.00 | 0.00 | 0.00 | 88 | 1014.5 |
| 20260905073112 | 78 | 291 | 0.0 | 1.0 | 0.00 | 0.00 | 0.00 | 88 | 1014.3 |
| 20260905072611 | 78 | 195 | 0.0 | 2.0 | 0.00 | 0.00 | 0.00 | 88 | 1014.4 |
| 20260905072106 | 78 | 165 | 0.0 | 2.0 | 0.00 | 0.00 | 0.00 | 87 | 1014.4 |
| 20260905071603 | 78 | 269 | 0.0 | 2.0 | 0.00 | 0.00 | 0.00 | 87 | 1014.9 |
| 20260905071103 | 78 | 320 | 0.0 | 2.0 | 0.00 | 0.00 | 0.00 | 87 | 1014.6 |
| 20260905070558 | 78 | 266 | 0.0 | 1.0 | 0.00 | 0.00 | 0.00 | 87 | 1015.0 |
| 20260905070054 | 78 | 288 | 0.0 | 2.0 | 0.00 | 0.00 | 0.00 | 87 | 1014.6 |
| 20260905065552 | 78 | 246 | 0.0 | 2.0 | 0.00 | 0.00 | 0.00 | 86 | 1014.6 |
| 20260905065047 | 78 | 282 | 0.0 | 0.0 | 0.00 | 0.00 | 0.00 | 86 | 1014.7 |
| 20260905064542 | 79 | 278 | 0.0 | 2.0 | 0.00 | 0.00 | 0.00 | 86 | 1014.9 |
| 20260905064037 | 79 | 283 | 0.0 | 2.0 | 0.00 | 0.00 | 0.00 | 85 | 1014.5 |
| 20260905063536 | 79 | 322 | 0.0 | 1.0 | 0.00 | 0.00 | 0.00 | 85 | 1014.6 |
| 20260905063033 | 79 | 216 | 0.0 | 2.0 | 0.00 | 0.00 | 0.00 | 84 | 1014.7 |
| 20260905062532 | 79 | 230 | 1.0 | 1.0 | 0.00 | 0.00 | 0.00 | 84 | 1014.9 |
| 20260905062027 | 79 | 164 | 0.0 | 1.0 | 0.00 | 0.00 | 0.00 | 84 | 1015.0 |
| 20260905061522 | 79 | 240 | 0.0 | 2.0 | 0.00 | 0.00 | 0.00 | 84 | 1014.9 |
| 20260905061021 | 79 | 206 | 1.0 | 2.0 | 0.00 | 0.00 | 0.00 | 84 | 1014.9 |
| 20260905060518 | 79 | 156 | 0.0 | 2.0 | 0.00 | 0.00 | 0.00 | 83 | 1015.1 |
| 20260905060013 | 80 | 166 | 0.0 | 1.0 | 0.00 | 0.00 | 0.00 | 83 | 1014.7 |
| 20260905055511 | 80 | 220 | 1.0 | 2.0 | 0.00 | 0.00 | 0.00 | 82 | 1014.4 |
| 20260905055006 | 80 | 166 | 0.0 | 3.0 | 0.00 | 0.00 | 0.00 | 82 | 1014.9 |
| 20260905054502 | 80 | 81 | 0.0 | 2.0 | 0.00 | 0.00 | 0.00 | 82 | 1014.7 |
| 20260905053957 | 80 | 95 | 0.0 | 3.0 | 0.00 | 0.00 | 0.00 | 82 | 1014.7 |
| 20260905053452 | 80 | 186 | 1.0 | 2.0 | 0.00 | 0.00 | 0.00 | 82 | 1014.9 |
| 20260905052948 | 80 | 283 | 1.0 | 2.0 | 0.00 | 0.00 | 0.00 | 82 | 1014.6 |
| 20260905052447 | 80 | 149 | 0.0 | 1.0 | 0.00 | 0.00 | 0.00 | 82 | 1014.7 |
| 20260905051947 | 80 | 102 | 0.0 | 3.0 | 0.00 | 0.00 | 0.00 | 82 | 1015.0 |
| 20260905051442 | 80 | 337 | 0.0 | 3.0 | 0.00 | 0.00 | 0.00 | 81 | 1014.7 |
| 20260905050939 | 80 | 129 | 0.0 | 2.0 | 0.00 | 0.00 | 0.00 | 81 | 1014.7 |
| 20260905050435 | 81 | 208 | 0.0 | 2.0 | 0.00 | 0.00 | 0.00 | 81 | 1014.9 |
| 20260905045931 | 81 | 157 | 2.0 | 2.0 | 0.00 | 0.00 | 0.00 | 81 | 1014.7 |
| 20260905045426 | 81 | 119 | 0.0 | 0.0 | 0.00 | 0.00 | 0.00 | 81 | 1014.9 |
| 20260905044921 | 81 | 221 | 1.0 | 3.0 | 0.00 | 0.00 | 0.00 | 80 | 1014.9 |
| 20260905044416 | 81 | 142 | 0.0 | 3.0 | 0.00 | 0.00 | 0.00 | 80 | 1014.7 |
| 20260905043915 | 81 | 131 | 0.0 | 2.0 | 0.00 | 0.00 | 0.00 | 80 | 1014.6 |
| 20260905043410 | 81 | 113 | 1.0 | 1.0 | 0.00 | 0.00 | 0.00 | 80 | 1015.0 |
| 20260905042909 | 81 | 134 | 1.0 | 1.0 | 0.00 | 0.00 | 0.00 | 80 | 1015.1 |
| 20260905042404 | 81 | 187 | 0.0 | 2.0 | 0.00 | 0.00 | 0.00 | 80 | 1015.0 |
| 20260905041859 | 81 | 160 | 0.0 | 2.0 | 0.00 | 0.00 | 0.00 | 79 | 1014.9 |
| 20260905041355 | 81 | 107 | 0.0 | 1.0 | 0.00 | 0.00 | 0.00 | 79 | 1015.0 |
| 20260905040849 | 81 | 75 | 0.0 | 2.0 | 0.00 | 0.00 | 0.00 | 78 | 1015.0 |
| 20260905040349 | 82 | 147 | 0.0 | 2.0 | 0.00 | 0.00 | 0.00 | 78 | 1014.6 |
| 20260905035848 | 82 | 147 | 0.0 | 2.0 | 0.00 | 0.00 | 0.00 | 78 | 1014.6 |
| 20260905035344 | 82 | 105 | 0.0 | 1.0 | 0.00 | 0.00 | 0.00 | 78 | 1014.9 |
| 20260905034840 | 82 | 228 | 0.0 | 1.0 | 0.00 | 0.00 | 0.00 | 77 | 1014.7 |
| 20260905034336 | 82 | 157 | 1.0 | 3.0 | 0.00 | 0.00 | 0.00 | 76 | 1014.6 |
| 20260905033834 | 82 | 160 | 1.0 | 3.0 | 0.00 | 0.00 | 0.00 | 76 | 1014.5 |
| 20260905033330 | 82 | 151 | 1.0 | 3.0 | 0.00 | 0.00 | 0.00 | 75 | 1014.5 |
| 20260905032829 | 82 | 103 | 1.0 | 2.0 | 0.00 | 0.00 | 0.00 | 75 | 1014.9 |
| 20260905032325 | 83 | 79 | 0.0 | 1.0 | 0.00 | 0.00 | 0.00 | 75 | 1014.5 |
| 20260905031820 | 83 | 118 | 2.0 | 2.0 | 0.00 | 0.00 | 0.00 | 74 | 1014.4 |
| 20260905031316 | 83 | 246 | 0.0 | 1.0 | 0.00 | 0.00 | 0.00 | 74 | 1014.3 |
| 20260905030810 | 83 | 124 | 0.0 | 3.0 | 0.00 | 0.00 | 0.00 | 73 | 1014.4 |
| 20260905030306 | 83 | 144 | 1.0 | 3.0 | 0.00 | 0.00 | 0.00 | 73 | 1014.2 |
| 20260905025805 | 83 | 132 | 1.0 | 5.0 | 0.00 | 0.00 | 0.00 | 72 | 1014.3 |